• In Hungary
  • List of Countries
  • For 7 days
  • Water Temperature
  • Satellite Maps
  • Weather Map
  • News
  • Weather Widgets
  • user-avatar
    Login

    Hourly Weather Burgovo

    Today, 20 October, Saturday

    Time Temperature Precipitation Wind Pressure Humidity
    00:00 +10°C° 0 mm 2 mps 743 mmHg 95%
    01:00 +10°C° 0 mm 2 mps 744 mmHg 95%
    02:00 +9°C° 0 mm 2 mps 744 mmHg 96%
    03:00 +9°C° 0 mm 2 mps 744 mmHg 96%
    04:00 +8°C° 0 mm 2 mps 744 mmHg 96%
    05:00 +8°C° 0 mm 3 mps 744 mmHg 95%
    06:00 +8°C° 0 mm 3 mps 744 mmHg 92%
    07:00 +8°C° 0 mm 3 mps 745 mmHg 89%
    08:00 +8°C° 0 mm 3 mps 745 mmHg 85%
    09:00 +9°C° 0 mm 3 mps 745 mmHg 78%
    10:00 +11°C° 0 mm 3 mps 745 mmHg 72%
    11:00 +12°C° 0 mm 3 mps 745 mmHg 65%
    12:00 +12°C° 0 mm 3 mps 745 mmHg 62%
    13:00 +12°C° 0 mm 3 mps 745 mmHg 59%
    14:00 +12°C° 0 mm 3 mps 745 mmHg 56%
    15:00 +11°C° 0 mm 3 mps 745 mmHg 61%
    16:00 +10°C° 0 mm 2 mps 745 mmHg 66%
    17:00 +8°C° 0 mm 2 mps 745 mmHg 71%
    18:00 +8°C° 0 mm 2 mps 746 mmHg 73%
    19:00 +7°C° 0 mm 2 mps 746 mmHg 75%
    20:00 +6°C° 0 mm 2 mps 746 mmHg 78%
    21:00 +6°C° 0 mm 2 mps 746 mmHg 80%
    22:00 +6°C° 0 mm 2 mps 746 mmHg 81%
    23:00 +5°C° 0 mm 2 mps 746 mmHg 83%

    Tomorrow, 21 October, Sunday

    Time Temperature Precipitation Wind Pressure Humidity
    00:00 +5°C° 0 mm 2 mps 746 mmHg 85%
    01:00 +5°C° 0 mm 2 mps 746 mmHg 86%
    02:00 +4°C° 0 mm 2 mps 746 mmHg 87%
    03:00 +4°C° 0 mm 2 mps 747 mmHg 88%
    04:00 +4°C° 0 mm 2 mps 747 mmHg 89%
    05:00 +3°C° 0 mm 2 mps 747 mmHg 90%
    06:00 +4°C° 0 mm 2 mps 747 mmHg 87%
    07:00 +5°C° 0 mm 2 mps 747 mmHg 84%
    08:00 +4°C° 0 mm 3 mps 748 mmHg 81%
    09:00 +7°C° 0 mm 3 mps 748 mmHg 75%
    10:00 +8°C° 0 mm 3 mps 748 mmHg 69%
    11:00 +9°C° 0 mm 3 mps 748 mmHg 63%
    12:00 +10°C° 0 mm 3 mps 748 mmHg 62%
    13:00 +10°C° 0 mm 3 mps 748 mmHg 60%
    14:00 +11°C° 0 mm 3 mps 748 mmHg 59%
    15:00 +9°C° 0 mm 3 mps 748 mmHg 65%
    16:00 +8°C° 0 mm 3 mps 748 mmHg 71%
    17:00 +7°C° 0 mm 2 mps 749 mmHg 78%
    18:00 +6°C° 0 mm 2 mps 749 mmHg 80%
    19:00 +6°C° 0 mm 2 mps 749 mmHg 83%
    20:00 +5°C° 0 mm 2 mps 749 mmHg 85%
    21:00 +5°C° 0 mm 2 mps 749 mmHg 86%
    22:00 +4°C° 0 mm 2 mps 750 mmHg 87%
    23:00 +4°C° 0 mm 2 mps 750 mmHg 88%

    Day after tomorrow, 22 October, Monday

    Time Temperature Precipitation Wind Pressure Humidity
    00:00 +4°C° 0 mm 2 mps 750 mmHg 89%
    01:00 +3°C° 0 mm 2 mps 750 mmHg 89%
    02:00 +3°C° 0 mm 2 mps 750 mmHg 90%
    03:00 +3°C° 0 mm 2 mps 749 mmHg 91%
    04:00 +3°C° 0 mm 2 mps 749 mmHg 91%
    05:00 +3°C° 0 mm 2 mps 749 mmHg 91%
    06:00 +3°C° 0 mm 2 mps 749 mmHg 88%
    07:00 +4°C° 0 mm 2 mps 749 mmHg 86%
    08:00 +4°C° 0 mm 2 mps 749 mmHg 83%
    09:00 +6°C° 0 mm 2 mps 749 mmHg 76%
    10:00 +8°C° 0 mm 2 mps 749 mmHg 69%
    11:00 +9°C° 0 mm 2 mps 749 mmHg 63%
    12:00 +10°C° 0 mm 2 mps 748 mmHg 62%
    13:00 +10°C° 0 mm 2 mps 748 mmHg 62%
    14:00 +12°C° 0 mm 2 mps 747 mmHg 61%
    15:00 +10°C° 0 mm 2 mps 747 mmHg 68%
    16:00 +10°C° 0 mm 1 mps 746 mmHg 74%
    17:00 +8°C° 0 mm 1 mps 746 mmHg 81%
    18:00 +8°C° 0 mm 1 mps 746 mmHg 83%
    19:00 +8°C° 0 mm 1 mps 745 mmHg 86%
    20:00 +8°C° 0 mm 1 mps 745 mmHg 88%
    21:00 +8°C° 0.2 mm 1 mps 744 mmHg 90%
    22:00 +8°C° 0.2 mm 1 mps 744 mmHg 91%
    23:00 +8°C° 0.2 mm 1 mps 743 mmHg 92%

    23 October, Tuesday

    Time Temperature Precipitation Wind Pressure Humidity
    00:00 +8°C° 1.3 mm 1 mps 743 mmHg 93%
    01:00 +8°C° 1.3 mm 1 mps 742 mmHg 95%
    02:00 +9°C° 1.3 mm 1 mps 741 mmHg 96%
    03:00 +8°C° 0.8 mm 1 mps 741 mmHg 96%
    04:00 +8°C° 0.8 mm 1 mps 740 mmHg 96%
    05:00 +8°C° 0.8 mm 1 mps 739 mmHg 96%
    06:00 +7°C° 0.4 mm 2 mps 739 mmHg 94%
    07:00 +7°C° 0.4 mm 2 mps 739 mmHg 91%
    08:00 +7°C° 0.4 mm 3 mps 739 mmHg 89%
    09:00 +7°C° 0 mm 3 mps 739 mmHg 84%
    10:00 +7°C° 0 mm 3 mps 739 mmHg 78%
    11:00 +8°C° 0 mm 3 mps 738 mmHg 72%
    12:00 +8°C° 0 mm 3 mps 738 mmHg 69%
    13:00 +8°C° 0 mm 4 mps 738 mmHg 66%
    14:00 +8°C° 0 mm 4 mps 737 mmHg 63%
    15:00 +8°C° 0 mm 3 mps 737 mmHg 68%
    16:00 +7°C° 0 mm 3 mps 737 mmHg 73%
    17:00 +5°C° 0 mm 3 mps 737 mmHg 79%
    18:00 +5°C° 0 mm 3 mps 737 mmHg 81%
    19:00 +5°C° 0 mm 3 mps 736 mmHg 82%
    20:00 +4°C° 0 mm 3 mps 736 mmHg 84%
    21:00 +4°C° 0 mm 3 mps 735 mmHg 84%
    22:00 +5°C° 0 mm 4 mps 735 mmHg 85%
    23:00 +5°C° 0 mm 4 mps 735 mmHg 85%

    24 October, Wednesday

    Time Temperature Precipitation Wind Pressure Humidity
    00:00 +5°C° 0 mm 4 mps 734 mmHg 85%
    01:00 +5°C° 0 mm 4 mps 734 mmHg 85%
    02:00 +5°C° 0 mm 4 mps 733 mmHg 85%
    03:00 +5°C° 0 mm 4 mps 732 mmHg 85%
    04:00 +4°C° 0 mm 4 mps 732 mmHg 85%
    05:00 +4°C° 0 mm 4 mps 731 mmHg 85%
    06:00 +3°C° 0 mm 5 mps 730 mmHg 82%
    07:00 +5°C° 0 mm 5 mps 730 mmHg 80%
    08:00 +4°C° 0 mm 6 mps 729 mmHg 78%
    09:00 +4°C° 0 mm 6 mps 729 mmHg 74%
    10:00 +5°C° 0 mm 7 mps 728 mmHg 70%
    11:00 +6°C° 0 mm 7 mps 728 mmHg 66%
    12:00 +6°C° 0.1 mm 7 mps 727 mmHg 68%
    13:00 +6°C° 0.1 mm 7 mps 726 mmHg 70%
    14:00 +6°C° 0.1 mm 7 mps 725 mmHg 73%
    15:00 +6°C° 0.4 mm 7 mps 725 mmHg 76%
    16:00 +6°C° 0.4 mm 7 mps 724 mmHg 79%
    17:00 +6°C° 0.4 mm 7 mps 724 mmHg 82%
    18:00 +6°C° 0.4 mm 7 mps 723 mmHg 82%
    19:00 +7°C° 0.4 mm 6 mps 723 mmHg 81%
    20:00 +7°C° 0.4 mm 6 mps 723 mmHg 81%
    21:00 +5°C° 0 mm 6 mps 722 mmHg 83%
    22:00 +6°C° 0 mm 5 mps 722 mmHg 84%
    23:00 +5°C° 0 mm 5 mps 722 mmHg 85%

    25 October, Thursday

    Time Temperature Precipitation Wind Pressure Humidity
    00:00 +5°C° 0 mm 5 mps 722 mmHg 85%
    01:00 +5°C° 0 mm 4 mps 722 mmHg 85%
    02:00 +5°C° 0 mm 4 mps 722 mmHg 85%
    03:00 +5°C° 0 mm 4 mps 722 mmHg 85%
    04:00 +4°C° 0 mm 4 mps 722 mmHg 86%
    05:00 +4°C° 0 mm 4 mps 722 mmHg 86%
    06:00 +4°C° 0 mm 4 mps 722 mmHg 84%
    07:00 +4°C° 0 mm 4 mps 723 mmHg 83%
    08:00 +4°C° 0 mm 4 mps 723 mmHg 82%
    09:00 +5°C° 0 mm 5 mps 723 mmHg 79%
    10:00 +5°C° 0 mm 5 mps 723 mmHg 76%
    11:00 +5°C° 0 mm 5 mps 723 mmHg 74%
    12:00 +5°C° 0.1 mm 5 mps 724 mmHg 74%
    13:00 +5°C° 0.1 mm 5 mps 724 mmHg 75%
    14:00 +5°C° 0.1 mm 5 mps 724 mmHg 75%
    15:00 +5°C° 0.1 mm 5 mps 725 mmHg 77%
    16:00 +4°C° 0.1 mm 4 mps 725 mmHg 79%
    17:00 +4°C° 0.1 mm 4 mps 726 mmHg 80%
    18:00 +4°C° 0 mm 4 mps 726 mmHg 81%
    19:00 +4°C° 0 mm 4 mps 727 mmHg 82%
    20:00 +3°C° 0 mm 4 mps 727 mmHg 82%
    21:00 +3°C° 0 mm 4 mps 728 mmHg 82%
    22:00 +3°C° 0 mm 4 mps 728 mmHg 81%
    23:00 +3°C° 0 mm 4 mps 729 mmHg 80%
    Show more